Home   Weather   Nürtingen   Past weeks

Flag for Germany Past Weather in Nürtingen, Baden-Württemberg, Germany — Yesterday and Last 2 Weeks

Now
41 °F

Partly cloudy.


Feels Like: 36 °F
Forecast: 35 / 61 °F
Wind: 7 mph from Southwest

Location: Stuttgart-Echterdingen

Current Time: Apr 29, 2017 at 4:05:29 am

Latest Report: Apr 29, 2017 at 3:20 am


Visibility: N/A

Pressure: 30.04 "Hg

Humidity: 76%

Dew Point: 34 °F

Location of NürtingenLocation

Past Weather in Nürtingen — Graph

°F

Nürtingen Temperature Yesterday

Maximum temperature yesterday: 52 °F (at 4:50 pm)
Minimum temperature yesterday: 39 °F (at 12:20 am)
Average temperature yesterday: 44 °F

High & Low Weather Summary for the Past Weeks

 TemperatureHumidityPressure
High66 °F (Apr 24, 5:50 pm)100% (Apr 18, 9:20 pm)30.54 "Hg (Apr 18, 9:20 pm)
Low27 °F (Apr 20, 5:20 am)27% (Apr 21, 4:50 pm)29.74 "Hg (Apr 25, 2:20 am)
Average43 °F71%30.10 "Hg
* Reported Apr 14 2:20 am — Apr 29 2:20 am, Nürtingen, Weather by CustomWeather, © 2017

Note: Actual official high and low records may vary slightly from our data, if they occured in-between our weather recording intervals... More about our weather records

Advertising

Nürtingen Weather History for the Previous 24 Hours

Scroll right to see more
 ConditionsComfort  
Time TempWeatherWind HumidityBarometerVisibility
2:20 am
Sat, Apr 29
41 °FPassing clouds.5 mph76%30.04 "HgN/A
1:50 am41 °FPassing clouds.5 mph76%30.04 "HgN/A
1:20 am41 °FPassing clouds.3 mph70%30.04 "HgN/A
12:50 am43 °FPartly cloudy.5 mph66%30.04 "HgN/A
12:20 am43 °FPassing clouds.2 mph71%30.04 "HgN/A
11:50 pm
Fri, Apr 28
43 °FClear.2 mph66%30.04 "Hg10 mi
10:50 pm41 °FPassing clouds.3 mph70%30.04 "HgN/A
10:20 pm43 °FPassing clouds.3 mph66%30.01 "HgN/A
9:50 pm43 °FPassing clouds.5 mph66%30.01 "HgN/A
9:20 pm43 °FPassing clouds.5 mph66%30.01 "HgN/A
8:50 pm43 °FPassing clouds.8 mph66%29.98 "HgN/A
8:20 pm46 °FSunny.5 mph53%29.98 "Hg10 mi
7:50 pm48 °FScattered clouds.6 mph54%29.98 "HgN/A
7:20 pm46 °FScattered clouds.6 mph57%29.95 "HgN/A
6:50 pm48 °FScattered clouds.7 mph50%29.95 "HgN/A
6:20 pm46 °FPartly sunny.22 mph57%29.95 "HgN/A
5:50 pm50 °FPartly sunny.14 mph50%29.95 "HgN/A
5:20 pm52 °FScattered clouds.12 mph44%29.95 "HgN/A
4:50 pm52 °FScattered clouds.14 mph41%29.92 "HgN/A
4:20 pm50 °FPartly sunny.2 mph58%29.92 "HgN/A
3:50 pm48 °FPartly sunny.2 mph54%29.92 "HgN/A
3:20 pm48 °FPartly sunny.3 mph54%29.92 "HgN/A
2:50 pm48 °FPartly sunny.10 mph54%29.92 "HgN/A
2:20 pm50 °FScattered clouds.7 mph54%29.92 "HgN/A
1:50 pm48 °FScattered clouds.14 mph62%29.92 "HgN/A
1:20 pm48 °FScattered clouds.5 mph58%29.89 "HgN/A
12:50 pm45 °FSprinkles. Scattered clouds.10 mph66%29.89 "HgN/A
12:20 pm46 °FScattered clouds.7 mph66%29.89 "HgN/A
11:50 am48 °FScattered clouds.7 mph66%29.89 "HgN/A
11:20 am45 °FScattered clouds.6 mph76%29.89 "HgN/A
10:50 am45 °FPartly sunny.6 mph76%29.89 "HgN/A
9:50 am43 °FPartly sunny.7 mph81%29.89 "HgN/A
9:20 am43 °FPartly sunny.7 mph81%29.89 "Hg6 mi
8:50 am41 °FLow clouds.6 mph87%29.89 "Hg4 mi
8:20 am41 °FLow clouds.3 mph87%29.89 "Hg4 mi
7:50 am39 °FLight rain. More clouds than sun.5 mph93%29.89 "Hg5 mi
7:20 am39 °FLight rain. More clouds than sun.3 mph93%29.89 "Hg6 mi
6:50 am39 °FLight rain. More clouds than sun.6 mph93%29.89 "Hg5 mi
6:20 am39 °FDrizzle. Partly sunny.7 mph93%29.89 "Hg5 mi
5:50 am39 °FPartly cloudy.8 mph93%29.86 "Hg5 mi
5:20 am39 °FPassing clouds.8 mph93%29.86 "Hg5 mi
4:50 am41 °FPassing clouds.7 mph87%29.86 "Hg5 mi
4:20 am41 °FPartly cloudy.6 mph87%29.89 "Hg6 mi
Weather by CustomWeather, © 2017

See weather overviewHow to use our weather pages